This is the latest recevied weather packets stored in our database for station/object KB4RFE. If no packets are shown the sender has not sent any weather packets the latest 10 day(s).
| Time | Temp. | Humidity | Pressure | Rain* | Wind** | Luminosity | Snow |
|---|---|---|---|---|---|---|---|
| 1788640832 | 31.11° C | 79% | 1013.1 hPa | 0 mm | - | 494 W/m² | - |
| 1788640532 | 31.11° C | 78% | 1013.2 hPa | 0 mm | - | 513 W/m² | - |
| 1788640227 | 31.11° C | 78% | 1013.1 hPa | 0 mm | - | 529 W/m² | - |
| 1788639923 | 31.11° C | 79% | 1013 hPa | 0 mm | - | 545 W/m² | - |
| 1788639618 | 31.67° C | 78% | 1012.9 hPa | 0 mm | - | 556 W/m² | - |
| 1788639314 | 31.11° C | 80% | 1013.1 hPa | 0 mm | - | 567 W/m² | - |
| 1788639013 | 31.11° C | 78% | 1013.1 hPa | 0 mm | - | 576 W/m² | - |
| 1788638709 | 31.11° C | 78% | 1013 hPa | 0 mm | - | 587 W/m² | - |
| 1788638408 | 31.11° C | 79% | 1013 hPa | 0 mm | - | 595 W/m² | - |
| 1788638103 | 31.11° C | 78% | 1013.2 hPa | 0 mm | - | 600 W/m² | - |
| 1788637798 | 31.67° C | 78% | 1013.3 hPa | 0 mm | - | 608 W/m² | - |
| 1788637498 | 31.67° C | 79% | 1013.4 hPa | 0 mm | - | 613 W/m² | - |
| 1788637198 | 31.67° C | 77% | 1013.4 hPa | 0 mm | - | 618 W/m² | - |
| 1788636898 | 31.67° C | 79% | 1013.3 hPa | 0 mm | - | 628 W/m² | - |
| 1788636593 | 31.67° C | 78% | 1013.2 hPa | 0 mm | - | 637 W/m² | - |
| 1788636288 | 31.67° C | 78% | 1013.5 hPa | 0 mm | - | 657 W/m² | - |
| 1788635984 | 31.67° C | 77% | 1013.6 hPa | 0 mm | - | 669 W/m² | - |
| 1788635684 | 31.67° C | 78% | 1013.7 hPa | 0 mm | - | 684 W/m² | - |
| 1788635383 | 31.67° C | 78% | 1013.8 hPa | 0 mm | - | 696 W/m² | - |
| 1788635081 | 31.67° C | 79% | 1014 hPa | 0 mm | - | 705 W/m² | - |
| 1788634780 | 31.67° C | 76% | 1014.1 hPa | 0 mm | - | 718 W/m² | - |
| 1788634475 | 31.67° C | 77% | 1014.2 hPa | 0 mm | - | 733 W/m² | - |
| 1788634174 | 31.67° C | 76% | 1014.3 hPa | 0 mm | - | 743 W/m² | - |
| 1788633869 | 31.67° C | 77% | 1014.3 hPa | 0 mm | - | 754 W/m² | - |
| 1788633567 | 31.67° C | 76% | 1014.4 hPa | 0 mm | - | 766 W/m² | - |
* Rain latest hour (hover to see other rain measurements)
** Current wind speed in m/s (hover to see current wind gust speed)